カタログに戻る

THORAD DELTA 1 DEB

運用中SSO
NORAD 8406·DEBRIS·🇺🇸 United States

打ち上げ Nov 15, 1974 から Vandenberg Space Force Base

Loading…

次のパス (今後24時間)

TLE

最新Source: Space-Track

元期: Sep 13, 2026, 12:12 UTC

1 08406U 74089CJ  26256.50900499  .00000073  00000-0  68359-3 0  9997
2 08406 101.2966 111.8353 0021140   8.8334  62.2777 12.57925165373143

AllMySatでTHORAD DELTA 1 DEBをリアルタイム追跡

Download on the App Store